Location: Indian Hills
(32.9760°N, 85.9450°W)
Time: 20:02:16
(UTC+00:00)

SKYMED 2 - Pass Details

Date: 09 December 2019
Orbit: 621 x 623 km, 97.9° (Epoch: 29 January)

Event Time Altitude Azimuth Distance (km) Brightness Sun altitude
Rises 10:59:24 0° 165° (SSE) 2,887 7.4 -19.5°
Reaches altitude 10° 11:01:34 10° 164° (SSE) 1,985 6.5 -19.1°
Maximum altitude 11:05:54 82° 77° (ENE) 633 3.6 -18.2°
Drops below altitude 10° 11:10:15 10° 350° (N) 1,999 5.9 -17.3°
Enters shadow 11:10:36 - 350° (N) 2,145 6.1 -17.2°
